RH
100 101 102 102 101 102 104 104 101 100 98 97 96 95 96 98 99 99 97 92 88 85 81 77 75 77 78 78 75 72 68 65 61 56 48 40 34 30 27 25 23 19 17 16 13 12 14 17 19 20 21 21 19 18 17 16 15 14 14 14 14 14 14
102 102 102 102 101 102 104 103 101 100 99 98 99 100 99 100 100 99 95 90 87 84 80 77 77 80 82 80 76 73 70 67 60 51 42 36 32 29 26 23 20 17 14 13 12 14 17 20 22 23 23 22 20 18 17 16 16 15 15 15 17 18 19
103 101 101 102 103 103 103 102 100 101 100 100 100 100 100 100 100 97 92 88 85 82 80 80 81 83 83 80 75 72 70 63 53 44 38 33 29 25 22 19 16 15 13 12 13 17 20 24 26 25 24 22 21 19 18 18 17 17 17 18 20 22 25
103 102 101 102 104 104 103 101 101 101 101 100 101 101 100 100 97 93 90 87 83 82 83 84 84 84 83 79 74 69 63 53 45 39 34 29 25 21 18 16 15 14 13 13 15 20 24 28 29 26 25 24 23 21 20 19 19 19 19 20 22 24 26
103 104 104 104 104 103 102 101 101 101 101 100 101 101 100 98 94 90 86 84 83 85 88 88 86 84 82 76 68 60 52 45 39 34 28 23 20 17 16 15 15 15 15 16 20 22 26 32 31 28 28 28 26 26 25 24 24 24 24 24 24 24 24
103 103 104 105 104 101 101 101 101 101 100 100 101 100 98 97 93 88 85 84 86 88 89 88 86 82 77 68 58 50 43 37 31 25 21 19 17 16 17 17 17 18 19 22 23 23 28 35 34 31 32 32 31 31 32 33 33 34 34 34 33 32 29
103 102 102 102 102 100 101 102 100 100 100 101 101 99 96 93 89 85 84 86 88 89 88 86 81 75 67 58 49 41 35 28 23 19 18 17 17 18 19 21 22 23 25 28 26 25 32 38 37 36 37 38 39 39 40 44 45 45 46 45 43 40 37
103 101 101 101 101 101 102 101 100 100 101 102 101 98 95 91 87 85 85 86 87 88 85 80 73 64 55 47 40 32 25 21 18 17 17 17 20 23 25 26 26 28 32 31 27 29 37 40 41 42 42 43 47 48 49 53 52 50 52 51 46 43 42
101 100 101 101 102 102 101 100 100 100 101 101 100 96 93 90 88 87 86 87 88 86 79 71 62 53 45 37 29 23 19 18 17 17 18 21 25 30 33 33 31 33 37 32 27 34 42 43 44 47 49 51 55 56 57 57 54 50 50 49 47 47 48
101 101 102 101 101 101 100 100 101 102 102 100 98 96 94 92 90 88 87 87 84 78 69 60 51 42 34 26 21 18 18 18 18 20 23 26 31 36 39 40 40 42 40 32 29 38 45 45 47 52 57 59 61 61 59 57 54 50 47 45 45 47 47
101 102 103 101 100 100 100 100 101 102 101 100 99 98 95 92 90 89 87 83 77 68 60 50 40 31 24 19 19 18 19 20 22 26 31 35 38 40 41 46 52 52 43 31 32 43 48 48 52 59 64 65 66 65 61 56 52 48 45 45 43 41 42
102 102 101 101 101 101 100 100 101 100 99 99 100 100 97 91 87 83 78 72 65 58 49 39 29 22 19 19 20 20 22 26 32 39 44 47 48 45 43 50 59 56 41 30 34 46 50 53 58 64 68 70 70 65 59 55 51 47 45 43 40 39 40
102 103 101 100 101 101 100 100 100 100 99 99 101 102 99 92 83 74 65 58 53 46 36 26 20 17 17 19 20 22 26 35 47 58 64 67 65 57 52 56 58 51 37 30 37 48 53 59 64 66 71 79 76 66 59 57 54 50 46 42 40 39 40
102 102 102 101 100 100 100 100 100 100 100 101 103 102 97 87 75 66 59 51 43 34 24 18 16 17 18 20 21 24 31 42 57 69 76 82 84 75 64 59 54 44 34 31 39 50 56 63 68 67 72 83 80 67 60 59 56 50 45 41 39 40 41
102 101 101 100 100 100 100 100 100 100 100 102 103 98 88 78 68 61 54 44 34 24 18 16 17 18 20 21 22 25 35 47 57 65 72 84 94 89 74 59 48 39 32 31 40 51 59 67 71 69 75 86 84 71 63 59 55 50 47 45 44 44 43
102 101 100 100 100 100 100 100 101 102 101 101 97 89 78 70 63 55 45 34 24 18 16 17 19 20 22 23 25 31 39 45 49 56 68 82 91 87 72 56 45 35 30 33 44 54 61 66 68 69 79 90 89 79 71 65 59 56 54 51 48 46 46
100 100 100 100 100 100 100 100 101 104 102 96 89 80 71 64 57 46 34 24 18 16 18 20 21 23 22 24 31 38 42 44 45 51 64 76 79 74 63 50 42 34 29 34 46 57 62 64 64 68 78 85 84 79 73 66 61 59 57 52 48 45 47
100 100 100 100 100 100 100 99 102 103 97 87 80 74 66 58 47 35 24 19 17 17 20 22 23 25 25 29 38 45 47 50 51 50 55 62 64 62 56 46 39 35 31 35 47 58 64 64 63 69 79 83 82 79 72 63 58 58 55 51 48 46 47
101 100 99 100 101 101 101 101 102 98 89 80 75 70 61 49 36 25 19 17 17 19 22 24 24 27 31 35 41 48 54 59 58 53 53 53 50 49 49 44 39 35 32 38 50 60 65 63 62 70 82 87 85 81 74 65 59 57 54 51 49 48 48
100 100 100 101 101 101 102 101 96 90 83 76 71 65 53 38 26 20 17 16 18 21 23 25 26 30 37 39 39 44 52 55 52 49 48 46 42 42 44 42 39 35 35 42 53 62 65 61 61 75 89 93 89 84 77 69 63 59 56 53 50 50 49
100 100 100 101 102 103 102 97 90 84 78 73 67 56 41 28 20 17 16 17 20 22 24 26 28 32 41 44 42 44 47 47 45 42 39 38 38 39 39 39 37 37 40 46 54 61 62 58 63 82 96 95 91 85 77 69 64 62 59 57 55 54 52
100 99 99 102 103 103 100 93 85 79 74 69 60 44 30 21 17 16 17 18 21 23 25 28 30 32 38 43 44 45 46 45 43 40 36 36 36 35 36 38 37 37 41 47 54 60 60 61 75 93 100 97 92 84 74 67 65 63 61 61 59 56 54
100 100 101 103 103 101 96 90 82 76 71 63 49 33 23 18 16 16 18 19 21 23 26 29 32 34 37 41 43 44 44 43 42 40 38 37 35 33 35 37 36 36 39 45 53 58 58 65 83 97 102 102 100 91 82 77 74 71 69 67 64 60 58
100 102 103 103 101 99 93 86 80 74 66 52 36 24 19 17 16 18 20 19 20 23 26 29 33 35 38 41 44 46 46 44 43 42 42 41 37 35 36 36 35 35 38 43 51 55 57 65 83 97 104 107 106 101 96 93 89 85 82 79 75 70 66
102 103 102 101 100 96 89 83 78 70 57 40 27 20 17 16 17 19 21 20 21 22 24 28 32 35 38 42 45 46 46 45 43 44 47 46 41 38 37 35 34 34 36 41 48 52 54 61 76 92 101 104 102 99 100 100 96 92 91 90 85 78 73
103 102 101 100 97 92 85 81 74 61 45 31 22 18 17 16 17 20 21 22 22 23 25 29 31 34 38 42 44 45 44 43 43 45 48 49 47 43 38 35 34 34 35 39 44 48 51 55 65 80 90 93 94 95 99 100 96 92 93 95 90 80 75
103 102 101 98 93 88 82 77 66 50 35 24 19 17 17 16 17 19 21 22 23 24 26 30 33 36 38 40 41 41 41 42 43 45 47 48 49 47 43 38 35 34 35 38 41 45 47 50 59 71 81 87 91 95 100 100 94 90 92 93 87 78 76
103 104 102 96 89 84 79 70 56 40 27 21 18 18 18 17 18 20 21 21 22 23 24 29 33 35 36 36 36 37 38 39 41 42 43 43 45 47 46 41 37 35 35 37 39 42 45 48 55 66 77 86 92 98 102 101 96 93 92 90 85 79 79
103 104 101 93 87 83 74 61 46 32 23 19 19 19 19 19 19 20 21 21 21 22 24 28 31 32 33 32 32 33 34 36 37 38 38 38 40 42 43 43 41 39 38 38 39 41 44 48 56 66 79 90 97 102 106 105 100 95 92 90 86 82 83
104 103 99 92 87 81 68 52 38 27 20 18 19 19 19 19 20 21 22 22 23 24 26 28 30 31 31 30 29 30 31 32 32 33 34 35 35 35 37 40 40 40 40 41 41 44 47 52 58 68 83 95 102 105 108 107 103 97 92 88 85 81 81
105 104 99 92 86 76 60 44 32 24 20 21 22 21 19 20 21 22 23 23 25 28 31 33 33 33 33 33 32 32 32 31 30 31 33 34 33 33 34 34 35 37 38 39 41 43 45 49 54 63 76 89 95 100 105 106 103 97 90 86 82 78 79
107 104 100 93 82 65 49 37 28 21 19 22 24 22 20 20 22 23 24 25 27 29 32 34 36 37 38 38 37 37 36 35 34 34 34 34 34 35 35 34 34 34 35 36 39 40 42 46 52 60 73 85 92 97 103 104 101 95 89 85 81 79 81
106 104 98 87 72 55 41 32 25 19 17 20 22 21 20 20 22 25 27 28 30 32 33 35 36 37 38 39 39 40 40 40 39 39 38 38 38 38 38 37 37 36 37 39 41 42 46 52 59 70 81 91 97 102 104 104 101 97 93 89 85 83 85
108 105 94 76 59 47 36 28 22 19 18 20 20 20 20 21 23 26 28 31 34 36 38 40 42 42 41 42 42 43 43 43 43 43 43 43 43 43 43 43 43 43 45 47 49 53 59 67 76 87 94 98 102 104 104 104 103 102 100 96 91 89 90
105 98 82 63 49 39 30 23 21 21 21 21 20 20 21 23 26 29 31 34 38 41 44 48 50 50 51 52 52 53 54 54 53 53 53 52 53 53 53 53 54 55 57 61 66 71 78 86 94 99 100 102 105 106 105 106 107 105 103 101 97 95 94
84 72 59 48 38 30 24 23 24 23 23 22 21 21 23 27 31 34 37 40 44 49 55 59 61 63 64 65 67 69 71 73 73 73 72 71 71 71 72 73 75 76 79 84 88 92 97 101 102 102 103 105 108 108 107 108 109 107 105 103 101 99 98
Wind_Speed
73 74 75 75 75 74 73 72 71 70 69 69 69 70 70 71 71 71 73 75 77 78 79 80 81 83 85 87 89 90 91 92 92 93 94 96 96 96 96 96 95 93 88 82 78 75 71 67 67 67 67 66 64 63 63 63 63 64 64 65 66 67 69
74 74 75 75 74 73 72 71 69 69 69 69 69 70 71 71 71 73 75 76 78 79 80 81 83 85 87 89 90 91 92 93 94 95 96 97 97 97 96 95 92 89 84 77 71 68 65 62 62 63 62 61 60 59 60 60 60 60 60 61 62 63 64
74 74 74 74 72 71 70 69 68 68 68 69 70 70 71 71 72 74 76 77 78 80 82 83 85 87 89 90 91 92 93 94 95 97 97 98 98 96 93 91 87 83 79 72 65 62 60 58 59 59 57 56 56 55 55 56 56 56 56 57 58 59 60
74 74 73 73 71 70 68 67 67 68 69 70 70 71 71 73 74 75 77 78 79 81 84 85 87 88 90 91 92 93 94 95 96 98 98 97 95 92 88 85 81 77 72 67 60 56 55 55 55 55 53 52 52 51 51 51 51 51 52 53 54 56 57
73 73 72 71 69 68 67 67 68 69 69 70 70 71 72 74 75 76 78 79 81 83 85 87 88 89 91 92 93 94 95 96 97 97 96 94 90 86 82 78 74 70 66 62 57 52 52 52 51 51 51 49 49 48 48 47 47 47 48 48 50 52 54
72 72 71 69 67 66 66 67 68 69 69 70 71 72 73 75 76 77 79 81 83 85 87 88 89 90 92 93 94 95 96 97 96 94 91 87 83 79 75 71 67 64 61 58 54 50 50 49 48 49 49 48 48 47 46 45 46 46 47 47 49 51 53
71 70 68 66 65 65 66 67 68 68 69 70 72 73 74 75 77 78 80 82 84 86 88 89 90 91 92 94 95 96 96 95 92 88 84 80 77 73 70 66 62 59 57 54 51 49 48 47 47 48 48 48 48 47 46 45 45 46 48 49 50 51 52
70 68 66 64 64 65 66 67 67 68 70 71 73 74 75 76 78 80 82 84 86 87 88 89 90 92 93 94 95 95 93 89 86 82 77 73 70 68 65 62 58 55 53 52 50 49 48 46 46 47 48 48 48 47 46 46 46 47 49 50 51 51 51
67 65 63 63 65 66 66 67 67 69 71 73 74 75 76 78 80 82 84 85 86 87 88 89 91 92 93 94 93 90 86 83 79 75 71 67 65 63 61 58 55 52 51 50 49 49 48 46 46 47 47 47 47 46 46 47 48 48 49 50 50 50 51
65 63 62 64 65 65 66 66 68 70 72 73 74 76 78 80 82 84 85 86 86 87 89 90 91 93 93 91 87 83 79 76 72 69 66 63 61 59 57 55 53 50 49 49 49 49 47 46 46 46 47 46 45 46 47 48 49 49 50 50 50 50 51
62 61 62 64 64 65 66 67 69 71 72 74 76 78 80 81 83 84 85 86 87 88 89 91 91 91 89 84 80 76 73 70 67 65 62 60 58 56 54 52 50 49 49 49 49 48 47 45 45 45 45 45 45 46 48 49 49 50 50 50 50 50 50
61 61 62 63 64 65 66 67 69 71 73 75 78 80 82 83 83 84 85 86 87 88 90 90 89 86 81 76 72 69 67 65 64 62 59 57 55 53 51 49 48 48 49 49 49 48 45 44 44 44 44 45 46 48 49 49 49 50 50 50 49 49 50
60 61 62 63 64 65 66 68 70 72 74 77 79 81 84 84 84 85 86 86 87 88 89 89 86 80 74 68 64 62 61 60 60 58 56 54 53 51 50 49 46 47 48 48 48 47 44 43 44 43 43 45 47 48 48 49 50 51 50 49 49 49 49
60 61 62 63 64 65 66 68 71 73 76 78 80 82 84 85 85 86 87 88 89 89 88 85 80 74 68 62 58 56 56 56 56 55 53 51 50 49 50 49 46 46 47 48 48 46 43 42 43 42 43 45 47 48 49 50 50 50 50 49 48 48 48
60 61 62 63 64 66 67 69 72 75 77 79 81 82 84 85 86 86 87 88 89 88 84 79 73 67 62 59 55 52 52 53 53 52 50 48 48 48 49 49 47 45 46 48 47 44 42 42 42 43 44 45 46 48 49 49 49 49 49 49 48 48 48
60 61 62 63 65 66 68 71 74 77 78 80 81 82 83 84 85 86 87 88 86 83 78 72 66 61 58 56 53 51 50 51 51 50 47 45 45 47 48 48 47 45 45 47 46 43 42 42 42 43 44 45 46 47 48 48 49 49 49 49 48 48 48
60 61 62 64 66 68 70 73 76 77 79 80 81 82 83 84 85 86 86 85 82 77 71 65 60 57 55 53 51 50 50 50 50 48 45 43 44 45 46 46 46 46 45 45 44 43 42 42 42 43 44 45 46 46 47 48 48 48 49 49 48 47 48
60 61 63 65 67 69 72 74 76 78 79 79 81 82 83 84 85 85 84 80 76 71 64 59 55 54 53 51 50 50 49 48 49 47 44 42 42 42 44 44 45 45 45 44 43 42 42 42 43 44 44 45 45 45 47 48 48 48 49 48 47 47 48
60 62 64 66 69 71 73 74 76 78 79 79 80 82 83 85 85 83 80 76 71 65 59 54 52 50 50 50 49 48 47 47 47 47 45 43 42 40 40 42 44 45 45 44 43 42 42 43 44 44 44 45 45 45 47 49 49 49 49 48 47 47 48
61 63 65 68 70 72 73 74 75 77 79 79 80 82 84 84 83 79 75 71 65 60 54 51 49 47 48 49 48 47 46 46 46 46 45 43 42 39 38 41 43 44 44 44 44 44 44 44 43 44 44 45 45 45 47 48 49 49 49 48 48 48 48
62 64 67 69 71 72 73 74 75 77 78 78 80 82 83 82 79 75 71 66 60 56 51 48 46 45 45 48 48 47 47 46 45 46 45 43 41 40 38 39 41 42 44 45 45 44 44 43 43 44 45 45 45 46 47 48 48 49 48 48 48 49 48
64 66 68 70 71 72 73 75 76 77 77 78 80 81 81 79 76 71 66 61 56 53 49 46 45 44 44 46 47 47 47 47 45 45 45 43 42 40 38 38 40 42 44 45 44 44 43 43 43 44 45 45 45 46 47 47 47 48 48 49 49 49 49
66 68 69 70 71 72 73 75 76 76 77 78 79 79 77 75 71 66 62 58 53 50 47 44 43 43 44 45 46 47 47 47 46 44 44 44 43 39 37 38 39 41 43 44 44 44 43 43 43 44 45 45 45 46 47 47 48 49 49 49 49 49 49
67 68 69 70 71 72 74 75 76 77 77 78 77 76 74 70 66 62 58 55 51 49 47 44 42 42 43 44 45 46 47 48 47 44 43 43 43 40 37 38 39 40 43 44 43 44 43 43 43 44 44 44 44 45 46 47 48 49 50 50 50 50 49
68 68 69 70 71 72 73 74 75 77 77 77 75 73 69 65 61 58 55 52 50 48 46 44 42 41 42 43 44 45 46 47 46 44 42 42 43 41 39 38 38 40 42 43 43 43 43 43 43 43 43 43 44 45 45 46 47 48 49 50 50 49 48
68 69 69 70 71 72 73 74 76 76 76 75 72 68 64 61 57 54 52 50 48 47 45 44 42 41 41 42 44 45 45 45 44 43 41 40 41 42 40 38 38 39 40 42 42 43 43 43 43 43 43 43 43 44 45 45 46 47 48 50 50 49 47
69 69 70 71 71 72 73 74 75 75 74 72 69 64 60 57 54 51 49 48 46 45 44 42 40 40 41 42 43 44 44 43 41 41 40 38 39 41 41 39 38 38 40 41 42 42 42 42 43 43 42 42 43 44 44 45 46 47 48 49 50 48 46
69 70 71 71 72 72 73 74 74 73 72 69 64 60 56 54 51 49 47 46 44 42 41 39 39 39 41 42 42 42 42 41 39 38 38 36 36 38 40 41 39 39 40 41 41 42 42 42 42 42 42 42 42 43 44 46 46 47 48 49 49 48 46
70 70 71 72 72 73 74 73 72 71 68 65 60 56 53 51 49 47 46 45 43 40 39 39 39 39 40 41 41 40 39 39 38 37 36 35 34 35 37 39 40 40 40 41 42 42 42 42 42 42 42 42 43 44 45 46 46 47 47 48 48 47 46
70 71 71 72 72 74 74 73 71 68 65 61 56 53 51 49 47 46 45 44 42 41 40 40 40 40 41 41 40 39 39 38 37 36 35 34 34 33 34 36 38 40 41 42 42 42 43 43 43 43 43 43 43 44 45 46 46 46 47 47 47 47 46
71 71 72 73 73 74 74 72 68 64 61 57 53 50 49 47 46 45 44 42 41 40 40 40 41 40 41 41 41 40 40 39 38 37 36 36 35 34 34 35 36 38 39 40 41 42 43 43 43 43 43 43 43 44 44 45 46 46 46 46 47 46 45
71 72 74 75 75 75 73 70 65 60 55 52 50 48 47 45 44 43 43 41 40 38 38 39 40 40 40 41 41 41 41 40 40 39 39 38 37 37 36 36 36 37 37 38 39 40 41 41 41 42 42 42 43 43 44 45 45 45 46 46 46 46 45
72 74 75 76 76 75 73 69 64 57 51 48 47 45 44 43 42 42 42 41 40 39 38 38 39 39 40 40 40 40 41 41 41 41 40 40 40 39 39 39 38 38 38 39 39 40 40 41 41 41 41 42 43 43 44 45 45 45 46 46 45 45 44
74 76 77 77 75 73 70 65 60 54 49 46 44 43 42 41 40 40 41 42 41 39 39 39 39 39 40 40 40 40 40 40 40 41 41 41 41 41 41 41 40 40 40 40 41 41 41 42 42 42 42 43 43 44 44 45 45 45 45 45 44 44 43
75 77 77 75 72 69 65 60 55 50 47 44 43 42 40 39 39 40 41 42 41 40 40 40 39 39 40 40 40 40 40 40 40 41 41 41 41 42 42 41 41 41 41 41 42 42 42 42 43 43 43 43 44 44 45 45 45 44 44 44 44 43 43
74 75 73 70 67 63 60 55 51 47 45 43 42 41 40 39 39 40 41 41 42 41 41 41 40 40 41 41 41 41 41 41 41 40 41 41 41 41 42 42 41 41 41 42 42 42 43 43 43 43 44 44 44 44 44 44 44 44 43 43 43 42 42
Wind_Direction
299 298 297 296 295 294 293 293 292 292 291 291 291 291 291 291 291 291 292 292 292 293 293 294 295 296 296 296 296 296 296 296 296 295 295 295 295 294 294 294 293 292 290 287 284 279 273 268 266 265 265 265 265 264 263 262 261 260 259 259 258 256 255
299 298 297 296 295 294 293 293 292 292 291 291 291 291 291 291 292 292 292 293 293 294 294 295 296 296 296 296 296 296 296 296 296 296 295 295 295 295 294 293 292 290 288 285 281 275 269 265 263 263 264 264 264 263 262 261 260 259 258 258 257 256 255
298 298 297 296 294 294 293 293 292 291 291 291 291 291 292 292 292 293 293 294 294 295 296 296 297 297 297 296 297 297 297 297 296 296 296 295 295 295 294 292 290 288 286 283 277 271 265 262 261 262 262 262 262 261 260 260 260 259 258 258 257 257 256
298 297 296 295 294 294 293 292 292 291 291 292 292 292 292 292 293 293 294 295 296 296 297 297 297 297 297 297 297 297 297 297 296 296 296 295 295 294 292 290 288 286 283 280 274 267 261 260 260 261 260 260 259 259 259 259 259 259 258 258 258 257 257
297 296 296 295 294 294 293 292 291 291 292 292 292 292 292 293 294 294 295 296 297 297 298 298 298 298 298 298 298 297 297 297 297 296 296 295 294 292 290 288 286 284 281 277 271 263 258 258 259 259 258 258 257 257 257 257 258 258 257 257 257 258 257
297 296 295 295 294 293 292 291 291 292 292 292 292 292 293 294 295 295 297 298 298 298 298 298 299 299 298 298 298 298 298 297 297 296 295 294 292 290 288 286 284 281 278 274 268 260 256 257 257 257 256 256 256 256 255 256 257 257 257 257 256 257 257
297 296 295 294 293 292 291 291 292 292 292 292 292 293 294 295 296 297 298 298 298 299 299 299 299 299 299 299 299 298 298 297 296 295 294 292 290 288 287 285 282 279 275 270 264 257 255 255 255 255 255 255 255 256 256 256 256 257 258 257 257 257 259
296 295 294 293 292 291 291 292 292 292 292 292 293 294 295 296 297 298 298 299 299 299 299 300 300 299 299 299 299 298 298 297 295 293 292 291 289 287 285 283 280 276 272 266 259 254 254 254 253 254 254 254 255 256 257 257 256 256 257 258 258 259 260
296 295 294 292 291 291 292 292 292 292 293 293 294 296 297 298 298 299 299 299 300 300 300 300 300 300 300 299 299 298 297 295 294 292 291 289 287 285 283 281 279 274 269 262 255 252 254 254 253 253 254 255 256 257 257 258 258 257 257 258 260 261 262
295 294 293 292 292 292 292 293 293 293 294 295 296 297 298 298 299 299 300 300 301 301 301 301 301 300 300 300 299 297 296 294 293 291 290 288 285 284 281 279 276 272 266 258 252 251 253 253 253 255 256 256 258 258 258 258 258 259 259 261 261 262 264
294 293 292 292 292 292 293 293 294 294 295 296 297 298 298 299 300 300 301 302 302 302 301 301 301 301 300 300 298 296 295 293 292 290 288 286 284 282 280 277 274 269 263 255 250 250 253 253 254 256 258 259 259 259 258 259 260 260 261 262 263 264 266
293 292 292 292 293 293 294 294 295 295 297 298 298 299 299 300 300 301 302 302 302 302 302 302 301 301 300 299 297 295 294 292 291 289 287 285 284 282 280 276 271 266 260 253 249 250 253 254 255 257 259 261 260 259 260 260 261 262 262 263 265 267 268
293 292 292 293 293 294 295 295 296 297 298 299 299 300 300 301 302 302 302 302 302 302 302 302 301 300 299 297 294 293 292 290 288 287 286 284 283 281 279 276 271 264 258 251 248 251 252 253 256 258 260 262 262 261 262 263 263 263 264 265 266 268 270
293 293 293 294 294 295 296 297 297 298 299 300 300 300 301 302 303 303 303 303 303 303 303 302 301 300 299 296 293 291 289 287 286 284 283 282 281 279 278 275 271 264 256 250 248 250 252 254 256 259 260 262 262 262 263 263 264 265 266 267 268 270 273
293 293 294 295 295 296 297 298 298 299 300 300 301 301 302 303 304 304 304 304 304 304 303 303 302 300 298 296 293 290 287 285 283 282 282 281 279 277 276 274 271 264 255 249 248 250 252 254 257 260 262 263 264 264 265 266 267 268 269 271 272 274 275
294 294 295 295 296 298 299 299 300 300 301 301 302 303 303 304 304 305 305 305 305 304 303 303 302 300 297 295 293 290 287 284 283 282 282 280 278 276 274 273 271 264 254 248 249 251 252 252 255 258 260 262 263 265 266 268 269 270 271 272 273 274 276
295 296 296 297 298 299 300 300 301 301 302 302 303 304 304 305 305 305 305 305 304 303 303 302 301 299 296 294 292 290 288 286 285 283 281 279 277 274 273 271 269 264 255 248 248 251 253 254 256 259 260 261 263 265 267 268 269 270 272 272 273 274 275
296 296 297 298 299 300 301 301 301 302 303 304 304 305 305 305 305 306 306 305 303 303 302 302 300 297 295 294 292 290 289 288 286 285 283 279 275 273 272 270 266 261 256 250 249 251 253 256 259 261 263 264 266 268 269 269 270 271 272 273 274 275 275
297 298 299 300 301 301 302 302 302 303 304 305 305 306 306 306 306 306 305 304 303 302 302 301 298 296 294 292 290 290 289 288 287 286 284 281 277 273 271 268 264 258 254 251 251 253 255 257 260 263 265 267 268 270 271 272 272 273 274 274 275 275 275
298 299 300 301 302 302 302 303 303 304 305 306 306 306 306 306 306 306 304 303 302 301 301 299 297 294 292 291 290 289 288 287 286 285 284 282 280 276 270 265 261 256 252 250 251 252 254 257 260 263 265 267 268 270 272 273 275 276 277 277 277 277 277
300 301 302 302 302 303 303 304 304 305 306 307 307 307 306 306 306 305 303 302 301 300 300 298 295 293 291 290 290 290 288 287 286 285 284 282 280 277 271 265 259 253 251 250 250 251 255 258 261 264 265 266 268 270 272 273 275 277 279 279 279 279 279
301 302 303 303 303 304 304 305 305 306 307 307 307 307 306 306 305 303 302 301 300 300 299 297 294 292 290 289 289 288 288 287 286 285 285 283 280 276 272 266 257 251 248 248 249 252 255 258 262 264 265 268 270 272 274 276 278 279 280 280 280 280 281
302 303 303 304 304 305 305 306 306 307 307 307 307 307 306 305 304 302 300 300 300 299 297 295 293 292 291 289 288 288 287 287 286 286 285 283 280 277 272 265 256 250 246 246 248 250 253 256 259 262 265 268 272 274 277 279 280 281 282 282 282 282 283
303 303 304 304 305 305 306 306 307 307 307 308 307 306 305 304 302 300 299 299 299 298 297 295 293 292 290 289 288 287 287 287 287 287 285 283 281 278 272 264 256 250 246 246 247 249 251 254 257 261 264 266 269 272 274 277 279 280 282 282 282 283 283
304 304 305 305 305 306 307 307 307 307 308 308 307 306 304 302 300 298 298 298 298 297 297 296 294 292 290 288 287 285 285 286 287 287 285 282 280 277 272 266 258 251 247 246 247 249 251 253 256 259 262 263 265 268 271 273 276 278 280 281 282 283 283
304 305 305 306 306 307 307 307 308 308 308 307 306 305 303 300 298 297 296 296 296 296 296 296 295 293 290 288 286 285 285 285 286 286 284 281 278 276 273 268 261 254 249 248 248 249 251 254 257 259 261 263 265 267 270 273 275 277 279 280 281 282 282
305 305 306 306 307 307 307 308 308 308 307 306 306 304 301 298 296 295 294 294 294 294 293 294 293 292 289 287 286 286 286 286 285 284 282 279 275 273 273 269 264 258 253 251 251 252 254 256 259 261 263 264 266 269 271 274 276 278 279 280 281 282 282
306 306 306 307 307 307 307 308 308 307 307 306 304 301 299 296 294 293 293 292 292 292 293 293 291 289 288 287 286 286 286 286 285 282 280 277 272 268 268 269 266 262 258 256 255 255 257 259 261 263 265 267 268 270 272 274 276 278 280 281 282 283 282
306 306 307 307 307 307 307 308 308 307 306 305 302 299 296 294 292 292 292 292 293 294 293 292 290 288 287 287 287 287 286 286 284 282 280 278 272 266 263 264 264 263 261 260 260 260 261 262 264 266 268 269 270 271 272 274 276 277 279 280 281 281 281
307 307 307 307 307 307 308 308 308 306 305 303 300 297 294 292 291 291 291 292 293 294 293 291 290 289 288 288 288 288 288 287 285 284 282 280 275 269 264 261 260 260 260 261 261 261 262 262 263 265 266 267 268 269 271 273 275 277 278 279 280 280 280
307 307 307 307 307 307 308 308 307 306 304 301 298 295 292 290 289 289 289 290 290 290 289 288 287 287 287 287 288 289 288 288 287 286 284 281 278 275 271 266 262 260 259 259 259 259 259 259 260 262 263 265 267 269 271 273 275 277 278 278 279 279 279
307 307 307 307 308 307 307 306 306 304 301 297 295 292 289 288 287 287 287 288 287 286 285 283 283 283 282 282 283 284 285 285 285 285 284 282 280 278 276 273 270 267 265 263 262 262 262 263 264 265 266 268 270 271 273 274 276 277 278 278 278 278 278
308 307 308 308 308 307 306 306 306 304 299 294 292 290 287 286 286 287 286 286 286 286 285 283 281 281 280 279 279 279 280 281 281 281 281 280 280 278 277 276 274 273 271 270 269 268 268 269 269 270 271 272 273 274 275 276 277 278 278 278 278 278 279
309 308 308 308 307 306 306 306 305 303 298 294 291 289 286 286 287 287 286 286 286 286 285 283 282 281 280 280 279 278 278 277 277 277 277 277 277 276 276 275 275 274 273 272 272 272 272 272 273 274 275 275 275 276 276 277 277 277 278 278 278 278 279
309 309 309 308 307 306 306 305 304 301 298 295 292 289 287 287 287 286 285 285 286 285 284 284 283 282 281 281 280 279 278 277 276 276 275 275 274 274 274 274 273 273 273 273 273 273 273 273 273 274 274 274 275 275 275 276 276 277 277 278 278 279 279
309 308 308 307 306 305 305 304 303 300 298 295 292 289 288 288 287 286 285 286 285 285 284 284 283 282 281 281 280 279 279 278 277 276 275 274 273 273 273 273 272 272 271 271 271 272 272 272 273 273 273 274 275 275 275 276 276 277 277 277 278 278 279